Time,TemperatureF,DewpointF,PressureIn,WindDirection,WindDirectionDegrees,WindSpeedMPH,WindSpeedGustMPH,Humidity,HourlyPrecipIn,Conditions,Clouds,dailyrainin,SoftwareType,DateUTC
2014-11-21 00:12:00,25.0,22.0,30.28,WNW,285,0.0,0.0,90,0.00,,,0.00,,2014-11-21 06:12:00,
2014-11-21 00:43:00,25.0,23.0,30.29,WNW,285,0.0,1.0,91,0.00,,,0.00,,2014-11-21 06:43:00,
2014-11-21 01:12:00,26.0,24.0,30.29,WNW,285,0.0,0.0,92,0.00,,,0.00,,2014-11-21 07:12:00,
2014-11-21 01:43:00,27.0,25.0,30.31,WNW,285,0.0,0.0,92,0.00,,,0.00,,2014-11-21 07:43:00,
2014-11-21 02:42:00,28.0,26.0,30.31,WNW,285,0.0,0.0,91,0.00,,,0.00,,2014-11-21 08:42:00,
2014-11-21 03:12:00,29.0,27.0,30.32,WNW,285,0.0,1.0,92,0.00,,,0.00,,2014-11-21 09:12:00,
2014-11-21 03:43:00,31.0,29.0,30.32,WNW,285,0.0,0.0,91,0.00,,,0.00,,2014-11-21 09:43:00,
2014-11-21 04:13:00,33.0,26.0,30.33,SE,132,1.0,5.0,76,0.00,,,0.00,,2014-11-21 10:13:00,
2014-11-21 04:43:00,34.0,26.0,30.34,ESE,119,1.0,4.0,71,0.00,,,0.00,,2014-11-21 10:43:00,
2014-11-21 05:13:00,33.0,25.0,30.35,East,87,0.0,2.0,71,0.00,,,0.00,,2014-11-21 11:13:00,
2014-11-21 05:42:00,33.0,24.0,30.35,East,90,4.0,8.0,70,0.00,,,0.00,,2014-11-21 11:42:00,
2014-11-21 06:12:00,33.0,24.0,30.35,SE,127,2.0,4.0,70,0.00,,,0.00,,2014-11-21 12:12:00,
2014-11-21 06:42:00,33.0,24.0,30.36,East,84,1.0,3.0,69,0.00,,,0.00,,2014-11-21 12:42:00,
2014-11-21 07:12:00,33.0,23.0,30.37,SE,142,2.0,6.0,67,0.00,,,0.00,,2014-11-21 13:12:00,
2014-11-21 07:42:00,33.0,23.0,30.39,East,90,3.0,9.0,66,0.00,,,0.00,,2014-11-21 13:42:00,
2014-11-21 08:43:00,35.0,23.0,30.39,ESE,114,4.0,11.0,61,0.00,,,0.00,,2014-11-21 14:43:00,
2014-11-21 09:12:00,36.0,24.0,30.40,ESE,113,4.0,9.0,61,0.00,,,0.00,,2014-11-21 15:12:00,
2014-11-21 09:44:00,37.0,24.0,30.40,ENE,76,5.0,13.0,58,0.00,,,0.00,,2014-11-21 15:44:00,
2014-11-21 10:13:00,38.0,25.0,30.40,East,94,4.0,9.0,58,0.00,,,0.00,,2014-11-21 16:13:00,
2014-11-21 10:43:00,40.0,26.0,30.40,ESE,116,5.0,9.0,56,0.00,,,0.00,,2014-11-21 16:43:00,
2014-11-21 11:12:00,40.0,25.0,30.40,East,96,5.0,10.0,55,0.00,,,0.00,,2014-11-21 17:12:00,
2014-11-21 11:43:00,42.0,27.0,30.38,ESE,117,5.0,10.0,54,0.00,,,0.00,,2014-11-21 17:43:00,
2014-11-21 12:13:00,43.0,27.0,30.36,ESE,117,4.0,9.0,52,0.00,,,0.00,,2014-11-21 18:13:00,